TimeEDT,TemperatureF,Dew PointF,Humidity,Sea Level PressureIn,VisibilityMPH,Wind Direction,Wind SpeedMPH,Gust SpeedMPH,PrecipitationIn,Events,Conditions,WindDirDegrees,DateUTC
12:00 AM,77.0,66.2,69,30.05,6.2,NE,5.8,-,N/A,,Scattered Clouds,40,2013-10-27 04:00:00
1:00 AM,77.0,66.2,69,30.04,6.2,NE,4.6,-,N/A,,Scattered Clouds,40,2013-10-27 05:00:00
2:00 AM,78.8,69.8,74,30.02,6.2,NNE,6.9,-,N/A,,Scattered Clouds,30,2013-10-27 06:00:00
4:00 AM,77.0,66.2,69,29.99,6.2,NNE,5.8,-,N/A,,Scattered Clouds,30,2013-10-27 08:00:00
5:00 AM,77,72,79,29.99,8,NNE,4.6,,,,Mostly Cloudy,20,2013-10-27 09:00:00
5:00 AM,77.0,71.6,83,29.99,6.2,NNE,4.6,-,N/A,,Mostly Cloudy,20,2013-10-27 09:00:00
6:00 AM,77.0,66.2,69,30.00,6.2,NE,5.8,-,N/A,,Mostly Cloudy,40,2013-10-27 10:00:00
7:00 AM,77.0,66.2,69,30.01,6.2,NE,6.9,-,N/A,,Mostly Cloudy,40,2013-10-27 11:00:00
8:00 AM,77,68,66,30.03,8,NNE,5.8,,,,Partly Cloudy,20,2013-10-27 12:00:00
8:00 AM,77.0,68.0,74,30.03,6.2,NNE,5.8,-,N/A,,Mostly Cloudy,20,2013-10-27 12:00:00
9:00 AM,77.0,64.4,65,30.04,6.2,NNE,6.9,-,N/A,,Mostly Cloudy,20,2013-10-27 13:00:00
10:00 AM,78.8,64.4,61,30.05,6.2,NNE,5.8,-,N/A,,Mostly Cloudy,20,2013-10-27 14:00:00
11:00 AM,82.4,69.8,66,30.05,6.2,NNE,9.2,-,N/A,,Mostly Cloudy,30,2013-10-27 15:00:00
12:00 PM,80.6,66.2,61,30.06,6.2,NNE,6.9,-,N/A,,Mostly Cloudy,30,2013-10-27 16:00:00
1:00 PM,82.4,66.2,58,30.05,6.2,NNE,8.1,-,N/A,,Mostly Cloudy,20,2013-10-27 17:00:00
2:00 PM,82.4,69.8,66,30.03,6.2,NNE,9.2,-,N/A,,Mostly Cloudy,20,2013-10-27 18:00:00
3:00 PM,82.4,69.8,66,30.02,6.2,NE,15.0,-,N/A,,Mostly Cloudy,50,2013-10-27 19:00:00
4:00 PM,80.6,71.6,74,30.02,6.2,ENE,13.8,-,N/A,,Mostly Cloudy,60,2013-10-27 20:00:00
5:00 PM,80.6,68.0,65,30.02,6.2,ENE,13.8,-,N/A,,Mostly Cloudy,60,2013-10-27 21:00:00
6:00 PM,78.8,71.6,78,30.03,6.2,East,9.2,-,N/A,,Mostly Cloudy,80,2013-10-27 22:00:00
7:00 PM,78.8,69.8,74,30.04,6.2,ENE,11.5,-,N/A,,Mostly Cloudy,60,2013-10-27 23:00:00
8:00 PM,78,65,56,30.05,8,East,9.2,,,,Partly Cloudy,80,2013-10-28 00:00:00
8:00 PM,78.8,64.4,61,30.04,6.2,East,9.2,-,N/A,,Mostly Cloudy,80,2013-10-28 00:00:00
9:00 PM,77.0,69.8,78,30.06,6.2,ENE,6.9,-,N/A,,Mostly Cloudy,70,2013-10-28 01:00:00
10:00 PM,77.0,68.0,74,30.07,6.2,ENE,8.1,-,N/A,,Mostly Cloudy,70,2013-10-28 02:00:00
11:00 PM,78,68,63,30.09,8,ENE,3.5,,,,Scattered Clouds,70,2013-10-28 03:00:00
11:00 PM,78.8,71.6,78,30.09,6.2,ENE,3.5,-,N/A,,Mostly Cloudy,70,2013-10-28 03:00:00